Location: Degersen
(52.2871°N, 9.5716°E)
Time: 23:11:32
(UTC+00:00)

Cosmos 1607 - Pass Details

Date: 20 January 2026
Orbit: 924 x 978 km, 65.0° (Epoch: 9 February)

Event Time Altitude Azimuth Distance (km) Brightness Sun altitude
Exits shadow 06:04:38 10° 318° (NW) 2,714 5.8 -11.1°
Reaches altitude 10° 06:04:44 10° 319° (NW) 2,674 5.8 -11.1°
Maximum altitude 06:11:00 73° 44° (NE) 1,002 4.2 -10.2°
Drops below altitude 10° 06:17:19 10° 129° (SE) 2,699 7.7 -9.3°
Sets 06:19:53 0° 131° (SE) 3,649 8.6 -8.9°
